| time (UTC) | temp F | wind direction | speed MPH | gust MPH | rain 1hr in | rain 24hr in | rain mn in | humidity % | barometer mb |
| 20260905083558 | 75 | 0 | 0.0 | 0.0 | 0.00 | 0.02 | 0.01 | 97 | 1014.5 |
| 20260905083100 | 75 | 0 | 0.0 | 0.0 | 0.00 | 0.02 | 0.01 | 97 | 1014.4 |
| 20260905082558 | 75 | 0 | 0.0 | 0.0 | 0.00 | 0.02 | 0.01 | 97 | 1014.5 |
| 20260905082058 | 75 | 0 | 0.0 | 0.0 | 0.01 | 0.02 | 0.01 | 97 | 1014.4 |
| 20260905081609 | 75 | 0 | 0.0 | 0.0 | 0.01 | 0.02 | 0.01 | 97 | 1014.4 |
| 20260905081056 | 75 | 0 | 0.0 | 0.0 | 0.01 | 0.02 | 0.01 | 97 | 1014.3 |
| 20260905080558 | 75 | 0 | 0.0 | 0.0 | 0.01 | 0.02 | 0.01 | 97 | 1014.4 |
| 20260905080101 | 75 | 0 | 0.0 | 0.0 | 0.01 | 0.02 | 0.01 | 97 | 1014.4 |
| 20260905075600 | 75 | 0 | 0.0 | 2.0 | 0.01 | 0.02 | 0.01 | 97 | 1014.5 |
| 20260905075058 | 75 | 0 | 0.0 | 2.0 | 0.01 | 0.02 | 0.01 | 97 | 1014.5 |
| 20260905074601 | 75 | 150 | 0.0 | 0.0 | 0.01 | 0.02 | 0.01 | 97 | 1014.5 |
| 20260905074120 | 75 | 150 | 0.0 | 0.0 | 0.01 | 0.02 | 0.01 | 97 | 1014.3 |
| 20260905073558 | 75 | 0 | 0.0 | 1.0 | 0.01 | 0.02 | 0.01 | 97 | 1014.4 |
| 20260905073104 | 75 | 0 | 0.0 | 1.0 | 0.01 | 0.02 | 0.01 | 97 | 1014.6 |
| 20260905072559 | 75 | 150 | 0.0 | 1.0 | 0.01 | 0.02 | 0.01 | 97 | 1014.6 |
| 20260905072101 | 75 | 150 | 0.0 | 0.0 | 0.00 | 0.01 | 0.00 | 97 | 1014.3 |
| 20260905071602 | 75 | 0 | 0.0 | 0.0 | 0.00 | 0.01 | 0.00 | 97 | 1014.4 |
| 20260905071057 | 75 | 0 | 0.0 | 0.0 | 0.00 | 0.01 | 0.00 | 97 | 1014.3 |
| 20260905070600 | 75 | 0 | 0.0 | 1.0 | 0.00 | 0.01 | 0.00 | 97 | 1014.4 |
| 20260905070106 | 75 | 0 | 0.0 | 1.0 | 0.00 | 0.01 | 0.00 | 97 | 1014.5 |
| 20260905065558 | 75 | 0 | 0.0 | 0.0 | 0.00 | 0.01 | 0.00 | 97 | 1014.5 |
| 20260905065100 | 75 | 0 | 0.0 | 0.0 | 0.00 | 0.01 | 0.00 | 97 | 1014.5 |
| 20260905064626 | 75 | 0 | 0.0 | 0.0 | 0.00 | 0.01 | 0.00 | 97 | 1014.4 |
| 20260905064058 | 76 | 0 | 0.0 | 1.0 | 0.00 | 0.01 | 0.00 | 97 | 1014.4 |
| 20260905063558 | 76 | 0 | 0.0 | 1.0 | 0.00 | 0.01 | 0.00 | 97 | 1014.5 |
| 20260905063103 | 76 | 0 | 0.0 | 1.0 | 0.00 | 0.01 | 0.00 | 97 | 1014.4 |
| 20260905062557 | 76 | 0 | 0.0 | 1.0 | 0.00 | 0.01 | 0.00 | 97 | 1014.5 |
| 20260905062056 | 76 | 144 | 0.0 | 1.0 | 0.00 | 0.01 | 0.00 | 97 | 1014.5 |
| 20260905061604 | 76 | 0 | 0.0 | 1.0 | 0.00 | 0.01 | 0.00 | 97 | 1014.6 |
| 20260905061058 | 76 | 0 | 0.0 | 1.0 | 0.00 | 0.01 | 0.00 | 97 | 1014.6 |
| 20260905060554 | 76 | 144 | 0.0 | 1.0 | 0.00 | 0.01 | 0.00 | 97 | 1014.6 |
| 20260905060100 | 76 | 0 | 0.0 | 1.0 | 0.00 | 0.01 | 0.00 | 97 | 1014.8 |
| 20260905055601 | 76 | 0 | 0.0 | 0.0 | 0.00 | 0.01 | 0.00 | 97 | 1014.8 |
| 20260905055054 | 76 | 0 | 0.0 | 0.0 | 0.00 | 0.01 | 0.00 | 97 | 1014.7 |
| 20260905054600 | 76 | 0 | 0.0 | 0.0 | 0.00 | 0.01 | 0.00 | 97 | 1014.8 |
| 20260905054058 | 76 | 0 | 0.0 | 0.0 | 0.00 | 0.01 | 0.00 | 97 | 1014.7 |
| 20260905053555 | 76 | 0 | 0.0 | 1.0 | 0.00 | 0.01 | 0.00 | 97 | 1014.8 |
| 20260905053102 | 76 | 0 | 0.0 | 1.0 | 0.00 | 0.01 | 0.00 | 97 | 1014.8 |
| 20260905052557 | 76 | 0 | 0.0 | 1.0 | 0.00 | 0.01 | 0.00 | 97 | 1014.9 |
| 20260905052055 | 76 | 146 | 0.0 | 1.0 | 0.00 | 0.01 | 0.00 | 97 | 1015.0 |
| 20260905051604 | 76 | 146 | 0.0 | 1.0 | 0.00 | 0.01 | 0.00 | 97 | 1015.0 |
| 20260905051054 | 76 | 146 | 0.0 | 1.0 | 0.00 | 0.01 | 0.00 | 97 | 1015.1 |
| 20260905050556 | 76 | 146 | 0.0 | 1.0 | 0.00 | 0.01 | 0.00 | 97 | 1015.1 |
| 20260905050100 | 76 | 0 | 0.0 | 1.0 | 0.00 | 0.01 | 0.00 | 97 | 1014.9 |
| 20260905045558 | 76 | 0 | 0.0 | 1.0 | 0.00 | 0.01 | 0.01 | 97 | 1015.0 |
| 20260905045058 | 76 | 0 | 0.0 | 1.0 | 0.00 | 0.01 | 0.01 | 97 | 1014.9 |
| 20260905044600 | 76 | 0 | 0.0 | 2.0 | 0.00 | 0.01 | 0.01 | 97 | 1014.9 |
| 20260905044058 | 76 | 0 | 0.0 | 2.0 | 0.00 | 0.01 | 0.01 | 97 | 1015.0 |
| 20260905043600 | 76 | 143 | 0.0 | 2.0 | 0.00 | 0.01 | 0.01 | 97 | 1015.0 |
| 20260905043107 | 76 | 146 | 0.0 | 1.0 | 0.00 | 0.01 | 0.01 | 97 | 1015.0 |
| 20260905042557 | 76 | 0 | 0.0 | 1.0 | 0.00 | 0.01 | 0.01 | 97 | 1015.0 |
| 20260905042056 | 76 | 0 | 0.0 | 1.0 | 0.00 | 0.01 | 0.01 | 97 | 1015.0 |
| 20260905041604 | 76 | 142 | 0.0 | 1.0 | 0.00 | 0.01 | 0.01 | 97 | 1015.1 |
| 20260905041054 | 76 | 157 | 0.0 | 2.0 | 0.00 | 0.01 | 0.01 | 97 | 1015.2 |
| 20260905040554 | 76 | 0 | 0.0 | 3.0 | 0.00 | 0.01 | 0.01 | 97 | 1015.3 |
| 20260905035558 | 76 | 145 | 0.0 | 3.0 | 0.00 | 0.01 | 0.01 | 97 | 1015.5 |
| 20260905035058 | 76 | 153 | 1.0 | 3.0 | 0.00 | 0.01 | 0.01 | 97 | 1015.5 |
| 20260905034609 | 76 | 146 | 1.0 | 3.0 | 0.00 | 0.01 | 0.01 | 97 | 1015.4 |
| 20260905034055 | 76 | 155 | 0.0 | 3.0 | 0.00 | 0.01 | 0.01 | 97 | 1015.5 |
| 20260905033554 | 76 | 152 | 1.0 | 3.0 | 0.00 | 0.01 | 0.01 | 97 | 1015.7 |
| 20260905033111 | 76 | 145 | 1.0 | 2.0 | 0.00 | 0.01 | 0.01 | 97 | 1015.7 |
| 20260905032559 | 76 | 139 | 0.0 | 2.0 | 0.00 | 0.01 | 0.01 | 97 | 1015.8 |
| 20260905032058 | 76 | 139 | 1.0 | 2.0 | 0.00 | 0.01 | 0.01 | 97 | 1015.8 |
| 20260905031612 | 76 | 0 | 0.0 | 1.0 | 0.00 | 0.01 | 0.01 | 97 | 1015.8 |
| 20260905031058 | 76 | 142 | 0.0 | 2.0 | 0.00 | 0.01 | 0.01 | 97 | 1015.6 |
| 20260905030558 | 76 | 147 | 1.0 | 2.0 | 0.00 | 0.01 | 0.01 | 97 | 1015.6 |
| 20260905030119 | 76 | 143 | 1.0 | 2.0 | 0.00 | 0.01 | 0.01 | 97 | 1015.7 |
| 20260905025557 | 77 | 144 | 0.0 | 2.0 | 0.00 | 0.01 | 0.01 | 97 | 1015.7 |
| 20260905025058 | 76 | 143 | 0.0 | 1.0 | 0.00 | 0.01 | 0.01 | 97 | 1015.8 |
| 20260905024606 | 77 | 148 | 0.0 | 1.0 | 0.00 | 0.01 | 0.01 | 97 | 1015.8 |
| 20260905024058 | 77 | 151 | 0.0 | 0.0 | 0.00 | 0.01 | 0.01 | 97 | 1015.9 |
| 20260905023600 | 77 | 0 | 0.0 | 1.0 | 0.00 | 0.01 | 0.01 | 97 | 1015.8 |
| 20260905023102 | 77 | 0 | 0.0 | 1.0 | 0.00 | 0.01 | 0.01 | 97 | 1015.8 |
| 20260905022558 | 77 | 144 | 0.0 | 2.0 | 0.00 | 0.01 | 0.01 | 97 | 1015.8 |
| 20260905022058 | 77 | 147 | 0.0 | 3.0 | 0.00 | 0.01 | 0.01 | 97 | 1015.6 |
| 20260905021606 | 77 | 141 | 0.0 | 3.0 | 0.00 | 0.01 | 0.01 | 97 | 1015.7 |
| 20260905021059 | 77 | 139 | 0.0 | 2.0 | 0.00 | 0.01 | 0.01 | 97 | 1015.7 |
| 20260905020558 | 77 | 0 | 0.0 | 2.0 | 0.00 | 0.01 | 0.01 | 97 | 1015.7 |
| 20260905020108 | 77 | 137 | 1.0 | 2.0 | 0.00 | 0.01 | 0.01 | 97 | 1015.7 |
| 20260905015559 | 77 | 122 | 1.0 | 3.0 | 0.00 | 0.01 | 0.01 | 97 | 1015.7 |
| 20260905015059 | 77 | 143 | 0.0 | 3.0 | 0.00 | 0.01 | 0.01 | 97 | 1015.5 |
| 20260905014601 | 77 | 142 | 1.0 | 2.0 | 0.00 | 0.01 | 0.01 | 97 | 1015.4 |
| 20260905014059 | 77 | 145 | 0.0 | 2.0 | 0.00 | 0.01 | 0.01 | 97 | 1015.4 |
| 20260905013558 | 77 | 141 | 0.0 | 2.0 | 0.00 | 0.01 | 0.01 | 97 | 1015.3 |
| 20260905013104 | 77 | 144 | 0.0 | 1.0 | 0.00 | 0.01 | 0.01 | 97 | 1015.3 |
| 20260905012600 | 78 | 0 | 0.0 | 1.0 | 0.00 | 0.01 | 0.01 | 97 | 1015.3 |
| 20260905012100 | 78 | 0 | 0.0 | 1.0 | 0.00 | 0.01 | 0.01 | 97 | 1015.2 |
| 20260905011608 | 78 | 0 | 0.0 | 1.0 | 0.00 | 0.01 | 0.01 | 97 | 1015.3 |
| 20260905011057 | 78 | 148 | 0.0 | 1.0 | 0.00 | 0.01 | 0.01 | 97 | 1015.3 |
| 20260905010601 | 78 | 0 | 0.0 | 1.0 | 0.00 | 0.01 | 0.01 | 97 | 1015.2 |
| 20260905010103 | 78 | 139 | 0.0 | 2.0 | 0.00 | 0.01 | 0.01 | 97 | 1015.3 |
| 20260905005555 | 78 | 0 | 0.0 | 2.0 | 0.00 | 0.01 | 0.01 | 97 | 1015.2 |
| 20260905005059 | 78 | 0 | 0.0 | 2.0 | 0.00 | 0.01 | 0.01 | 97 | 1015.0 |
| 20260905004607 | 78 | 147 | 0.0 | 0.0 | 0.00 | 0.01 | 0.01 | 97 | 1015.1 |
| 20260905004058 | 78 | 0 | 0.0 | 0.0 | 0.00 | 0.01 | 0.01 | 97 | 1015.1 |
| 20260905003559 | 78 | 0 | 0.0 | 0.0 | 0.00 | 0.01 | 0.01 | 96 | 1015.3 |
| 20260905003108 | 78 | 0 | 0.0 | 0.0 | 0.00 | 0.01 | 0.01 | 96 | 1015.2 |
| 20260905002557 | 78 | 0 | 0.0 | 0.0 | 0.00 | 0.01 | 0.01 | 96 | 1015.3 |
| 20260905002058 | 78 | 0 | 0.0 | 0.0 | 0.00 | 0.01 | 0.01 | 96 | 1015.3 |
| 20260905001612 | 78 | 0 | 0.0 | 1.0 | 0.00 | 0.01 | 0.01 | 95 | 1015.2 |
| 20260905001058 | 79 | 0 | 0.0 | 1.0 | 0.00 | 0.01 | 0.01 | 95 | 1015.2 |
| 20260905000558 | 79 | 155 | 0.0 | 0.0 | 0.00 | 0.01 | 0.01 | 95 | 1015.0 |
| 20260905000105 | 79 | 0 | 0.0 | 0.0 | 0.00 | 0.01 | 0.01 | 95 | 1015.0 |
| 20260904235557 | 79 | 160 | 0.0 | 0.0 | 0.00 | 0.01 | 0.01 | 95 | 1014.8 |
| 20260904235102 | 79 | 0 | 0.0 | 0.0 | 0.00 | 0.01 | 0.01 | 94 | 1014.8 |
| 20260904234607 | 79 | 0 | 0.0 | 0.0 | 0.00 | 0.01 | 0.01 | 95 | 1014.8 |
| 20260904234058 | 78 | 0 | 0.0 | 0.0 | 0.00 | 0.01 | 0.01 | 95 | 1014.9 |
| 20260904233558 | 79 | 0 | 0.0 | 0.0 | 0.00 | 0.01 | 0.01 | 95 | 1014.9 |
| 20260904233057 | 79 | 0 | 0.0 | 0.0 | 0.00 | 0.01 | 0.01 | 95 | 1014.9 |
| 20260904232558 | 79 | 0 | 0.0 | 0.0 | 0.00 | 0.01 | 0.01 | 95 | 1015.0 |
| 20260904232100 | 79 | 0 | 0.0 | 0.0 | 0.00 | 0.01 | 0.01 | 94 | 1014.9 |
| 20260904231606 | 79 | 0 | 0.0 | 0.0 | 0.00 | 0.01 | 0.01 | 94 | 1014.8 |
| 20260904231059 | 79 | 0 | 0.0 | 0.0 | 0.00 | 0.01 | 0.01 | 93 | 1014.8 |
| 20260904230602 | 80 | 0 | 0.0 | 0.0 | 0.00 | 0.01 | 0.01 | 93 | 1014.9 |
| 20260904230101 | 80 | 0 | 0.0 | 1.0 | 0.00 | 0.01 | 0.01 | 92 | 1014.9 |
| 20260904225559 | 80 | 0 | 0.0 | 1.0 | 0.00 | 0.01 | 0.01 | 93 | 1015.0 |
| 20260904225055 | 80 | 227 | 0.0 | 2.0 | 0.00 | 0.01 | 0.01 | 93 | 1014.9 |
| 20260904224601 | 80 | 0 | 0.0 | 2.0 | 0.00 | 0.01 | 0.01 | 93 | 1015.0 |
| 20260904224058 | 80 | 0 | 0.0 | 2.0 | 0.00 | 0.01 | 0.01 | 92 | 1015.1 |
| 20260904223558 | 80 | 157 | 0.0 | 2.0 | 0.01 | 0.01 | 0.01 | 93 | 1015.2 |
| 20260904223105 | 80 | 248 | 0.0 | 5.0 | 0.01 | 0.01 | 0.01 | 93 | 1015.1 |
| 20260904222557 | 80 | 150 | 1.0 | 5.0 | 0.01 | 0.01 | 0.01 | 93 | 1015.1 |
| 20260904222057 | 80 | 0 | 0.0 | 1.0 | 0.01 | 0.01 | 0.01 | 93 | 1015.1 |
| 20260904221605 | 80 | 143 | 0.0 | 1.0 | 0.01 | 0.01 | 0.01 | 94 | 1015.0 |
| 20260904221058 | 80 | 0 | 0.0 | 1.0 | 0.01 | 0.01 | 0.01 | 94 | 1015.1 |
| 20260904220559 | 80 | 0 | 0.0 | 1.0 | 0.01 | 0.01 | 0.01 | 94 | 1015.1 |
| 20260904220111 | 80 | 0 | 0.0 | 1.0 | 0.01 | 0.01 | 0.01 | 93 | 1015.2 |
| 20260904215600 | 80 | 0 | 0.0 | 1.0 | 0.01 | 0.01 | 0.01 | 93 | 1015.2 |
| 20260904215102 | 80 | 148 | 0.0 | 2.0 | 0.01 | 0.01 | 0.01 | 93 | 1015.0 |
| 20260904214600 | 80 | 0 | 0.0 | 2.0 | 0.01 | 0.01 | 0.01 | 94 | 1014.9 |
| 20260904214058 | 81 | 0 | 0.0 | 5.0 | 0.01 | 0.01 | 0.01 | 92 | 1014.9 |
| 20260904213558 | 81 | 0 | 0.0 | 9.0 | 0.00 | 0.00 | 0.00 | 90 | 1014.8 |
| 20260904213103 | 82 | 91 | 2.0 | 9.0 | 0.00 | 0.00 | 0.00 | 85 | 1014.8 |
| 20260904212559 | 82 | 86 | 1.0 | 4.0 | 0.00 | 0.00 | 0.00 | 84 | 1014.8 |
| 20260904212059 | 83 | 0 | 0.0 | 5.0 | 0.00 | 0.00 | 0.00 | 83 | 1014.7 |
| 20260904211605 | 83 | 144 | 1.0 | 5.0 | 0.00 | 0.00 | 0.00 | 82 | 1014.7 |
| 20260904211058 | 84 | 148 | 1.0 | 5.0 | 0.00 | 0.00 | 0.00 | 81 | 1014.7 |
| 20260904210558 | 84 | 136 | 1.0 | 5.0 | 0.00 | 0.00 | 0.00 | 81 | 1014.6 |
| 20260904210106 | 84 | 134 | 0.0 | 4.0 | 0.00 | 0.00 | 0.00 | 85 | 1014.7 |
| 20260904205559 | 83 | 133 | 1.0 | 5.0 | 0.00 | 0.00 | 0.00 | 82 | 1014.6 |
| 20260904205057 | 84 | 154 | 2.0 | 6.0 | 0.00 | 0.00 | 0.00 | 85 | 1014.7 |
| 20260904204604 | 84 | 133 | 1.0 | 6.0 | 0.00 | 0.00 | 0.00 | 85 | 1014.7 |
| 20260904204057 | 83 | 141 | 1.0 | 4.0 | 0.00 | 0.00 | 0.00 | 85 | 1014.7 |
| 20260904203558 | 83 | 0 | 1.0 | 5.0 | 0.00 | 0.00 | 0.00 | 85 | 1014.7 |
| 20260904203102 | 83 | 0 | 1.0 | 5.0 | 0.00 | 0.00 | 0.00 | 86 | 1014.7 |
| 20260904202557 | 82 | 96 | 2.0 | 6.0 | 0.00 | 0.00 | 0.00 | 87 | 1014.8 |
| 20260904202058 | 81 | 74 | 2.0 | 10.0 | 0.00 | 0.00 | 0.00 | 87 | 1014.9 |
| 20260904201606 | 82 | 108 | 3.0 | 10.0 | 0.00 | 0.00 | 0.00 | 87 | 1014.7 |
| 20260904201058 | 82 | 149 | 1.0 | 3.0 | 0.00 | 0.00 | 0.00 | 90 | 1014.9 |
| 20260904200601 | 82 | 0 | 0.0 | 1.0 | 0.00 | 0.00 | 0.00 | 91 | 1014.6 |
| 20260904200124 | 82 | 139 | 0.0 | 6.0 | 0.00 | 0.00 | 0.00 | 87 | 1014.6 |
| 20260904195558 | 82 | 0 | 0.0 | 6.0 | 0.00 | 0.00 | 0.00 | 88 | 1014.5 |
| 20260904195101 | 82 | 128 | 0.0 | 5.0 | 0.00 | 0.00 | 0.00 | 84 | 1014.7 |
| 20260904194636 | 83 | 111 | 0.0 | 12.0 | 0.00 | 0.00 | 0.00 | 84 | 1015.0 |
| 20260904194057 | 85 | 105 | 2.0 | 12.0 | 0.00 | 0.00 | 0.00 | 82 | 1014.8 |
| 20260904193558 | 87 | 161 | 3.0 | 12.0 | 0.00 | 0.00 | 0.00 | 77 | 1014.9 |
| 20260904193100 | 88 | 104 | 3.0 | 8.0 | 0.00 | 0.00 | 0.00 | 75 | 1014.9 |
| 20260904192558 | 90 | 100 | 1.0 | 6.0 | 0.00 | 0.00 | 0.00 | 68 | 1014.7 |
| 20260904192101 | 90 | 92 | 2.0 | 6.0 | 0.00 | 0.00 | 0.00 | 70 | 1014.8 |
| 20260904191623 | 91 | 51 | 1.0 | 9.0 | 0.00 | 0.00 | 0.00 | 66 | 1014.7 |
| 20260904191058 | 90 | 84 | 2.0 | 9.0 | 0.00 | 0.00 | 0.00 | 68 | 1014.8 |
| 20260904190558 | 89 | 91 | 3.0 | 6.0 | 0.00 | 0.00 | 0.00 | 72 | 1014.9 |
| 20260904190105 | 89 | 85 | 2.0 | 4.0 | 0.00 | 0.00 | 0.00 | 74 | 1014.7 |
| 20260904185558 | 87 | 145 | 0.0 | 3.0 | 0.00 | 0.00 | 0.00 | 77 | 1014.9 |
| 20260904185058 | 85 | 93 | 1.0 | 6.0 | 0.00 | 0.00 | 0.00 | 84 | 1015.0 |
| 20260904184614 | 85 | 92 | 0.0 | 6.0 | 0.00 | 0.00 | 0.00 | 84 | 1015.0 |
| 20260904184100 | 85 | 99 | 2.0 | 6.0 | 0.00 | 0.00 | 0.00 | 84 | 1015.2 |
| 20260904183558 | 86 | 138 | 1.0 | 5.0 | 0.00 | 0.00 | 0.00 | 82 | 1015.3 |
| 20260904183106 | 88 | 82 | 1.0 | 5.0 | 0.00 | 0.00 | 0.00 | 74 | 1015.4 |
| 20260904182557 | 89 | 87 | 1.0 | 5.0 | 0.00 | 0.00 | 0.00 | 72 | 1015.3 |
| 20260904182058 | 90 | 136 | 2.0 | 5.0 | 0.00 | 0.00 | 0.00 | 67 | 1015.4 |
| 20260904181600 | 91 | 147 | 2.0 | 5.0 | 0.00 | 0.00 | 0.00 | 70 | 1015.6 |
| 20260904181058 | 90 | 129 | 0.0 | 6.0 | 0.00 | 0.00 | 0.00 | 72 | 1015.8 |
| 20260904180558 | 89 | 349 | 2.0 | 6.0 | 0.00 | 0.00 | 0.00 | 74 | 1015.8 |
| 20260904180106 | 88 | 0 | 1.0 | 6.0 | 0.00 | 0.00 | 0.00 | 74 | 1015.9 |
| 20260904175557 | 89 | 101 | 2.0 | 6.0 | 0.00 | 0.00 | 0.00 | 74 | 1015.9 |
| 20260904175057 | 89 | 146 | 3.0 | 6.0 | 0.00 | 0.00 | 0.00 | 69 | 1015.9 |
| 20260904174604 | 89 | 91 | 1.0 | 5.0 | 0.00 | 0.00 | 0.00 | 72 | 1016.0 |
| 20260904174057 | 90 | 76 | 2.0 | 5.0 | 0.00 | 0.00 | 0.00 | 70 | 1015.9 |
| 20260904173558 | 90 | 0 | 1.0 | 6.0 | 0.00 | 0.00 | 0.00 | 70 | 1016.0 |
| 20260904173112 | 89 | 41 | 2.0 | 6.0 | 0.00 | 0.00 | 0.00 | 74 | 1016.1 |
| 20260904172558 | 89 | 355 | 0.0 | 3.0 | 0.00 | 0.00 | 0.00 | 76 | 1016.2 |
| 20260904172058 | 87 | 20 | 1.0 | 3.0 | 0.00 | 0.00 | 0.00 | 74 | 1016.3 |
| 20260904171603 | 87 | 146 | 1.0 | 3.0 | 0.00 | 0.00 | 0.00 | 75 | 1016.4 |
| 20260904171059 | 86 | 143 | 1.0 | 4.0 | 0.00 | 0.00 | 0.00 | 75 | 1016.6 |
| 20260904170601 | 86 | 110 | 1.0 | 6.0 | 0.00 | 0.00 | 0.00 | 76 | 1016.7 |
| 20260904170106 | 86 | 92 | 1.0 | 6.0 | 0.00 | 0.00 | 0.00 | 76 | 1016.8 |
| 20260904165557 | 86 | 108 | 1.0 | 8.0 | 0.00 | 0.00 | 0.00 | 79 | 1016.9 |
| 20260904165059 | 87 | 87 | 0.0 | 8.0 | 0.00 | 0.00 | 0.00 | 79 | 1017.0 |
| 20260904164602 | 87 | 0 | 0.0 | 3.0 | 0.00 | 0.00 | 0.00 | 75 | 1017.0 |
| 20260904164101 | 87 | 108 | 1.0 | 3.0 | 0.00 | 0.00 | 0.00 | 76 | 1017.1 |
| 20260904163558 | 86 | 54 | 1.0 | 3.0 | 0.00 | 0.00 | 0.00 | 78 | 1017.2 |
| 20260904163108 | 86 | 0 | 0.0 | 2.0 | 0.00 | 0.00 | 0.00 | 79 | 1017.2 |
| 20260904162558 | 86 | 0 | 0.0 | 3.0 | 0.00 | 0.00 | 0.00 | 78 | 1017.4 |
| 20260904162058 | 85 | 84 | 0.0 | 3.0 | 0.00 | 0.00 | 0.00 | 78 | 1017.5 |
| 20260904161606 | 85 | 81 | 1.0 | 3.0 | 0.00 | 0.00 | 0.00 | 82 | 1017.3 |
| 20260904161057 | 86 | 141 | 0.0 | 3.0 | 0.00 | 0.00 | 0.00 | 79 | 1017.4 |
| 20260904160558 | 85 | 0 | 0.0 | 3.0 | 0.00 | 0.00 | 0.00 | 80 | 1017.3 |
| 20260904160103 | 85 | 0 | 0.0 | 3.0 | 0.00 | 0.00 | 0.00 | 84 | 1017.5 |
| 20260904155559 | 85 | 77 | 0.0 | 3.0 | 0.00 | 0.00 | 0.00 | 84 | 1017.4 |
| 20260904155058 | 85 | 0 | 0.0 | 3.0 | 0.00 | 0.00 | 0.00 | 84 | 1017.4 |
| 20260904154617 | 84 | 0 | 0.0 | 3.0 | 0.00 | 0.00 | 0.00 | 82 | 1017.3 |
| 20260904154058 | 85 | 93 | 0.0 | 3.0 | 0.00 | 0.00 | 0.00 | 81 | 1017.4 |
| 20260904153558 | 85 | 155 | 1.0 | 2.0 | 0.00 | 0.00 | 0.00 | 80 | 1017.3 |
| 20260904153108 | 85 | 143 | 0.0 | 2.0 | 0.00 | 0.00 | 0.00 | 83 | 1017.3 |
| 20260904152557 | 85 | 127 | 0.0 | 4.0 | 0.00 | 0.00 | 0.00 | 80 | 1017.2 |
| 20260904152059 | 85 | 120 | 0.0 | 4.0 | 0.00 | 0.00 | 0.00 | 83 | 1017.2 |
| 20260904151611 | 84 | 149 | 1.0 | 4.0 | 0.00 | 0.00 | 0.00 | 81 | 1017.2 |
| 20260904151057 | 84 | 154 | 2.0 | 4.0 | 0.00 | 0.00 | 0.00 | 83 | 1017.1 |
| 20260904150558 | 84 | 150 | 0.0 | 4.0 | 0.00 | 0.00 | 0.00 | 83 | 1017.0 |
| 20260904150100 | 84 | 0 | 0.0 | 4.0 | 0.00 | 0.00 | 0.00 | 81 | 1016.9 |
| 20260904145557 | 84 | 172 | 1.0 | 3.0 | 0.00 | 0.00 | 0.00 | 81 | 1016.9 |
| 20260904145058 | 84 | 0 | 1.0 | 3.0 | 0.00 | 0.00 | 0.00 | 85 | 1016.9 |
| 20260904144600 | 83 | 0 | 0.0 | 3.0 | 0.00 | 0.00 | 0.00 | 83 | 1016.8 |
| 20260904144100 | 83 | 134 | 0.0 | 2.0 | 0.00 | 0.00 | 0.00 | 86 | 1016.8 |
| 20260904143558 | 83 | 163 | 0.0 | 3.0 | 0.00 | 0.00 | 0.00 | 87 | 1016.8 |
| 20260904143107 | 83 | 0 | 0.0 | 3.0 | 0.00 | 0.00 | 0.00 | 84 | 1016.7 |
| 20260904142558 | 83 | 165 | 0.0 | 3.0 | 0.00 | 0.00 | 0.00 | 84 | 1016.7 |
| 20260904142054 | 83 | 144 | 0.0 | 5.0 | 0.00 | 0.00 | 0.00 | 87 | 1016.7 |
| 20260904141623 | 82 | 0 | 0.0 | 5.0 | 0.00 | 0.00 | 0.00 | 86 | 1016.7 |
| 20260904141056 | 82 | 143 | 1.0 | 4.0 | 0.00 | 0.00 | 0.00 | 85 | 1016.7 |
| 20260904140557 | 82 | 136 | 0.0 | 4.0 | 0.00 | 0.00 | 0.00 | 87 | 1016.7 |
| 20260904140110 | 82 | 0 | 0.0 | 3.0 | 0.00 | 0.00 | 0.00 | 87 | 1016.7 |
| 20260904135556 | 81 | 0 | 0.0 | 3.0 | 0.00 | 0.00 | 0.00 | 89 | 1016.7 |
| 20260904135057 | 81 | 98 | 1.0 | 3.0 | 0.00 | 0.00 | 0.00 | 88 | 1016.6 |
| 20260904134619 | 81 | 147 | 0.0 | 2.0 | 0.00 | 0.00 | 0.00 | 92 | 1016.6 |
| 20260904134059 | 80 | 152 | 0.0 | 3.0 | 0.00 | 0.00 | 0.00 | 90 | 1016.6 |
| 20260904133555 | 80 | 141 | 0.0 | 4.0 | 0.00 | 0.00 | 0.00 | 90 | 1016.5 |
| 20260904133116 | 79 | 86 | 1.0 | 4.0 | 0.00 | 0.00 | 0.00 | 91 | 1016.6 |
| 20260904132555 | 79 | 172 | 0.0 | 2.0 | 0.00 | 0.00 | 0.00 | 92 | 1016.6 |
| 20260904132056 | 79 | 0 | 0.0 | 1.0 | 0.00 | 0.00 | 0.00 | 94 | 1016.6 |
| 20260904131615 | 78 | 94 | 0.0 | 1.0 | 0.00 | 0.00 | 0.00 | 94 | 1016.6 |
| 20260904131055 | 77 | 0 | 0.0 | 0.0 | 0.00 | 0.00 | 0.00 | 95 | 1016.6 |
| 20260904130555 | 77 | 0 | 0.0 | 1.0 | 0.00 | 0.00 | 0.00 | 95 | 1016.5 |
| 20260904125559 | 76 | 127 | 0.0 | 1.0 | 0.00 | 0.00 | 0.00 | 96 | 1016.6 |
| 20260904125059 | 76 | 0 | 0.0 | 1.0 | 0.00 | 0.00 | 0.00 | 96 | 1016.6 |
| 20260904124607 | 76 | 0 | 0.0 | 1.0 | 0.00 | 0.00 | 0.00 | 97 | 1016.6 |
| 20260904124058 | 76 | 0 | 0.0 | 0.0 | 0.00 | 0.00 | 0.00 | 97 | 1016.5 |
| 20260904123600 | 75 | 169 | 0.0 | 0.0 | 0.00 | 0.00 | 0.00 | 97 | 1016.5 |
| 20260904123126 | 75 | 0 | 0.0 | 0.0 | 0.00 | 0.00 | 0.00 | 97 | 1016.4 |
| 20260904122556 | 75 | 0 | 0.0 | 0.0 | 0.00 | 0.00 | 0.00 | 97 | 1016.4 |
| 20260904122056 | 75 | 169 | 0.0 | 0.0 | 0.00 | 0.00 | 0.00 | 97 | 1016.4 |
| 20260904121600 | 74 | 0 | 0.0 | 0.0 | 0.00 | 0.00 | 0.00 | 97 | 1016.3 |
| 20260904121056 | 74 | 0 | 0.0 | 0.0 | 0.00 | 0.00 | 0.00 | 97 | 1016.2 |
| 20260904120555 | 74 | 0 | 0.0 | 0.0 | 0.00 | 0.00 | 0.00 | 97 | 1016.2 |
| 20260904120109 | 74 | 0 | 0.0 | 0.0 | 0.00 | 0.00 | 0.00 | 97 | 1016.1 |
| 20260904115555 | 74 | 0 | 0.0 | 0.0 | 0.00 | 0.00 | 0.00 | 97 | 1016.2 |
| 20260904115100 | 74 | 0 | 0.0 | 1.0 | 0.00 | 0.00 | 0.00 | 97 | 1016.1 |
| 20260904114605 | 73 | 0 | 0.0 | 1.0 | 0.00 | 0.00 | 0.00 | 97 | 1016.1 |
| 20260904114055 | 74 | 0 | 0.0 | 1.0 | 0.00 | 0.00 | 0.00 | 97 | 1015.9 |
| 20260904113556 | 74 | 0 | 0.0 | 0.0 | 0.00 | 0.00 | 0.00 | 97 | 1015.8 |
| 20260904113103 | 74 | 0 | 0.0 | 1.0 | 0.00 | 0.00 | 0.00 | 97 | 1015.8 |
| 20260904112556 | 74 | 0 | 0.0 | 1.0 | 0.00 | 0.00 | 0.00 | 97 | 1015.7 |
| 20260904112055 | 74 | 0 | 0.0 | 0.0 | 0.00 | 0.00 | 0.00 | 97 | 1015.7 |
| 20260904111601 | 74 | 0 | 0.0 | 0.0 | 0.00 | 0.00 | 0.00 | 97 | 1015.7 |
| 20260904111055 | 74 | 0 | 0.0 | 0.0 | 0.00 | 0.00 | 0.00 | 97 | 1015.5 |
| 20260904110555 | 74 | 0 | 0.0 | 0.0 | 0.00 | 0.00 | 0.00 | 97 | 1015.5 |
| 20260904110110 | 74 | 0 | 0.0 | 0.0 | 0.00 | 0.00 | 0.00 | 97 | 1015.5 |
| 20260904105558 | 74 | 0 | 0.0 | 0.0 | 0.00 | 0.00 | 0.00 | 97 | 1015.5 |
| 20260904105056 | 74 | 0 | 0.0 | 0.0 | 0.00 | 0.00 | 0.00 | 97 | 1015.5 |
| 20260904104602 | 74 | 0 | 0.0 | 0.0 | 0.00 | 0.00 | 0.00 | 97 | 1015.4 |
| 20260904104055 | 74 | 0 | 0.0 | 0.0 | 0.00 | 0.00 | 0.00 | 97 | 1015.4 |
| 20260904103554 | 74 | 0 | 0.0 | 0.0 | 0.00 | 0.00 | 0.00 | 97 | 1015.4 |
| 20260904103106 | 74 | 0 | 0.0 | 0.0 | 0.00 | 0.00 | 0.00 | 97 | 1015.3 |
| 20260904102556 | 74 | 0 | 0.0 | 0.0 | 0.00 | 0.00 | 0.00 | 97 | 1015.3 |
| 20260904102055 | 75 | 0 | 0.0 | 0.0 | 0.00 | 0.00 | 0.00 | 97 | 1015.4 |
| 20260904101603 | 75 | 0 | 0.0 | 0.0 | 0.00 | 0.00 | 0.00 | 97 | 1015.4 |
| 20260904101055 | 75 | 0 | 0.0 | 0.0 | 0.00 | 0.00 | 0.00 | 97 | 1015.3 |
| 20260904100558 | 75 | 0 | 0.0 | 0.0 | 0.00 | 0.00 | 0.00 | 97 | 1015.3 |
| 20260904100110 | 75 | 0 | 0.0 | 0.0 | 0.00 | 0.00 | 0.00 | 97 | 1015.2 |
| 20260904095558 | 75 | 0 | 0.0 | 0.0 | 0.00 | 0.00 | 0.00 | 97 | 1015.2 |
| 20260904095058 | 75 | 0 | 0.0 | 0.0 | 0.00 | 0.00 | 0.00 | 97 | 1015.2 |
| 20260904094603 | 75 | 0 | 0.0 | 0.0 | 0.00 | 0.00 | 0.00 | 96 | 1015.2 |
| 20260904094057 | 75 | 0 | 0.0 | 0.0 | 0.00 | 0.00 | 0.00 | 96 | 1015.3 |
| 20260904093600 | 75 | 0 | 0.0 | 0.0 | 0.00 | 0.00 | 0.00 | 96 | 1015.3 |
| 20260904093103 | 75 | 0 | 0.0 | 0.0 | 0.00 | 0.00 | 0.00 | 96 | 1015.3 |
| 20260904092554 | 75 | 0 | 0.0 | 0.0 | 0.00 | 0.00 | 0.00 | 96 | 1015.3 |
| 20260904092054 | 75 | 0 | 0.0 | 0.0 | 0.00 | 0.00 | 0.00 | 96 | 1015.2 |
| 20260904091601 | 75 | 0 | 0.0 | 0.0 | 0.00 | 0.00 | 0.00 | 96 | 1015.2 |
| 20260904091059 | 75 | 0 | 0.0 | 0.0 | 0.00 | 0.00 | 0.00 | 96 | 1015.4 |
| 20260904090555 | 75 | 0 | 0.0 | 0.0 | 0.00 | 0.00 | 0.00 | 96 | 1015.3 |
| 20260904090103 | 75 | 0 | 0.0 | 0.0 | 0.00 | 0.00 | 0.00 | 96 | 1015.2 |
| 20260904085555 | 75 | 0 | 0.0 | 0.0 | 0.00 | 0.00 | 0.00 | 95 | 1015.2 |
| 20260904085057 | 75 | 0 | 0.0 | 0.0 | 0.00 | 0.00 | 0.00 | 95 | 1015.2 |
| 20260904084606 | 76 | 0 | 0.0 | 0.0 | 0.00 | 0.00 | 0.00 | 95 | 1015.2 |
| 20260904084054 | 76 | 0 | 0.0 | 0.0 | 0.00 | 0.00 | 0.00 | 95 | 1015.2 |